• In Hungary
  • List of Countries
  • For 7 days
  • Water Temperature
  • Satellite Maps
  • Weather Map
  • News
  • Weather Widgets
  • user-avatar
    Login

    Hourly Weather Mariestad

    Today, 22 May, Tuesday

    Time Temperature Precipitation Wind Pressure Humidity
    00:00 +14°C° 0 mm 1 mps 762 mmHg 52%
    01:00 +14°C° 0 mm 1 mps 762 mmHg 53%
    02:00 +13°C° 0 mm 1 mps 762 mmHg 55%
    03:00 +12°C° 0 mm 1 mps 762 mmHg 57%
    04:00 +12°C° 0 mm 1 mps 761 mmHg 59%
    05:00 +13°C° 0 mm 1 mps 761 mmHg 55%
    06:00 +15°C° 0 mm 1 mps 761 mmHg 51%
    07:00 +18°C° 0 mm 1 mps 761 mmHg 47%
    08:00 +19°C° 0 mm 1 mps 761 mmHg 43%
    09:00 +21°C° 0 mm 1 mps 760 mmHg 38%
    10:00 +23°C° 0 mm 1 mps 760 mmHg 34%
    11:00 +24°C° 0 mm 1 mps 760 mmHg 32%
    12:00 +25°C° 0 mm 1 mps 759 mmHg 31%
    13:00 +25°C° 0 mm 1 mps 759 mmHg 30%
    14:00 +25°C° 0 mm 1 mps 759 mmHg 31%
    15:00 +25°C° 0 mm 1 mps 758 mmHg 32%
    16:00 +24°C° 0 mm 1 mps 758 mmHg 32%
    17:00 +23°C° 0 mm 1 mps 758 mmHg 37%
    18:00 +22°C° 0 mm 1 mps 758 mmHg 42%
    19:00 +21°C° 0 mm 1 mps 758 mmHg 47%
    20:00 +19°C° 0 mm 1 mps 758 mmHg 49%
    21:00 +16°C° 0 mm 1 mps 759 mmHg 52%
    22:00 +15°C° 0 mm 1 mps 759 mmHg 54%
    23:00 +14°C° 0 mm 2 mps 759 mmHg 56%

    Tomorrow, 23 May, Wednesday

    Time Temperature Precipitation Wind Pressure Humidity
    00:00 +14°C° 0 mm 2 mps 759 mmHg 57%
    01:00 +13°C° 0 mm 2 mps 760 mmHg 59%
    02:00 +13°C° 0 mm 2 mps 760 mmHg 60%
    03:00 +12°C° 0 mm 2 mps 760 mmHg 61%
    04:00 +12°C° 0 mm 2 mps 760 mmHg 62%
    05:00 +13°C° 0 mm 2 mps 761 mmHg 57%
    06:00 +15°C° 0 mm 2 mps 761 mmHg 52%
    07:00 +17°C° 0 mm 2 mps 762 mmHg 48%
    08:00 +19°C° 0 mm 2 mps 762 mmHg 44%
    09:00 +20°C° 0 mm 2 mps 762 mmHg 39%
    10:00 +23°C° 0 mm 2 mps 763 mmHg 35%
    11:00 +24°C° 0 mm 2 mps 763 mmHg 33%
    12:00 +25°C° 0 mm 2 mps 763 mmHg 31%
    13:00 +26°C° 0 mm 2 mps 763 mmHg 29%
    14:00 +26°C° 0 mm 2 mps 763 mmHg 29%
    15:00 +26°C° 0 mm 2 mps 763 mmHg 29%
    16:00 +26°C° 0 mm 2 mps 763 mmHg 29%
    17:00 +25°C° 0 mm 2 mps 764 mmHg 34%
    18:00 +23°C° 0 mm 2 mps 764 mmHg 40%
    19:00 +21°C° 0 mm 2 mps 764 mmHg 45%
    20:00 +19°C° 0 mm 2 mps 765 mmHg 49%
    21:00 +17°C° 0 mm 2 mps 766 mmHg 53%
    22:00 +16°C° 0 mm 2 mps 766 mmHg 57%
    23:00 +15°C° 0 mm 2 mps 767 mmHg 61%

    Day after tomorrow, 24 May, Thursday

    Time Temperature Precipitation Wind Pressure Humidity
    00:00 +13°C° 0 mm 3 mps 767 mmHg 66%
    01:00 +12°C° 0 mm 3 mps 768 mmHg 70%
    02:00 +12°C° 0 mm 3 mps 768 mmHg 70%
    03:00 +12°C° 0 mm 3 mps 768 mmHg 70%
    04:00 +13°C° 0 mm 2 mps 768 mmHg 71%
    05:00 +13°C° 0 mm 3 mps 769 mmHg 64%
    06:00 +14°C° 0 mm 3 mps 769 mmHg 57%
    07:00 +17°C° 0 mm 3 mps 769 mmHg 50%
    08:00 +19°C° 0 mm 3 mps 769 mmHg 44%
    09:00 +20°C° 0 mm 3 mps 769 mmHg 39%
    10:00 +22°C° 0 mm 3 mps 769 mmHg 33%
    11:00 +24°C° 0 mm 2 mps 769 mmHg 32%
    12:00 +25°C° 0 mm 2 mps 769 mmHg 31%
    13:00 +26°C° 0 mm 2 mps 768 mmHg 30%
    14:00 +26°C° 0 mm 2 mps 768 mmHg 30%
    15:00 +26°C° 0 mm 2 mps 768 mmHg 30%
    16:00 +26°C° 0 mm 2 mps 768 mmHg 30%
    17:00 +25°C° 0 mm 2 mps 768 mmHg 35%
    18:00 +24°C° 0 mm 2 mps 768 mmHg 39%
    19:00 +21°C° 0 mm 2 mps 767 mmHg 44%
    20:00 +19°C° 0 mm 2 mps 768 mmHg 45%
    21:00 +17°C° 0 mm 3 mps 768 mmHg 47%
    22:00 +14°C° 0 mm 3 mps 768 mmHg 49%
    23:00 +13°C° 0 mm 3 mps 768 mmHg 52%

    25 May, Friday

    Time Temperature Precipitation Wind Pressure Humidity
    00:00 +12°C° 0 mm 3 mps 768 mmHg 54%
    01:00 +12°C° 0 mm 2 mps 769 mmHg 57%
    02:00 +12°C° 0 mm 2 mps 769 mmHg 61%
    03:00 +10°C° 0 mm 2 mps 769 mmHg 64%
    04:00 +11°C° 0 mm 1 mps 769 mmHg 67%
    05:00 +12°C° 0 mm 2 mps 768 mmHg 62%
    06:00 +14°C° 0 mm 2 mps 768 mmHg 56%
    07:00 +16°C° 0 mm 2 mps 768 mmHg 51%
    08:00 +18°C° 0 mm 2 mps 768 mmHg 46%
    09:00 +19°C° 0 mm 2 mps 768 mmHg 42%
    10:00 +21°C° 0 mm 2 mps 768 mmHg 37%
    11:00 +23°C° 0 mm 2 mps 768 mmHg 36%
    12:00 +24°C° 0 mm 2 mps 767 mmHg 35%
    13:00 +25°C° 0 mm 2 mps 767 mmHg 34%
    14:00 +25°C° 0 mm 2 mps 767 mmHg 35%
    15:00 +25°C° 0 mm 2 mps 766 mmHg 36%
    16:00 +25°C° 0 mm 2 mps 766 mmHg 37%
    17:00 +24°C° 0 mm 2 mps 766 mmHg 41%
    18:00 +24°C° 0 mm 2 mps 766 mmHg 46%
    19:00 +23°C° 0 mm 2 mps 766 mmHg 51%
    20:00 +20°C° 0 mm 3 mps 766 mmHg 56%
    21:00 +19°C° 0 mm 3 mps 766 mmHg 61%
    22:00 +17°C° 0 mm 3 mps 766 mmHg 66%
    23:00 +17°C° 0 mm 3 mps 767 mmHg 68%

    26 May, Saturday

    Time Temperature Precipitation Wind Pressure Humidity
    00:00 +16°C° 0 mm 3 mps 767 mmHg 71%
    01:00 +16°C° 0 mm 3 mps 767 mmHg 73%
    02:00 +14°C° 0 mm 3 mps 767 mmHg 76%
    03:00 +15°C° 0 mm 2 mps 767 mmHg 78%
    04:00 +14°C° 0 mm 2 mps 767 mmHg 81%
    05:00 +16°C° 0 mm 2 mps 767 mmHg 75%
    06:00 +17°C° 0 mm 2 mps 767 mmHg 68%
    07:00 +19°C° 0 mm 2 mps 767 mmHg 62%
    08:00 +22°C° 0 mm 1 mps 767 mmHg 56%
    09:00 +24°C° 0 mm 1 mps 767 mmHg 50%
    10:00 +26°C° 0 mm 1 mps 767 mmHg 44%
    11:00 +27°C° 0 mm 1 mps 767 mmHg 41%
    12:00 +27°C° 0 mm 1 mps 766 mmHg 38%
    13:00 +28°C° 0 mm 1 mps 766 mmHg 35%
    14:00 +28°C° 0 mm 1 mps 766 mmHg 36%
    15:00 +28°C° 0 mm 1 mps 766 mmHg 36%
    16:00 +27°C° 0 mm 2 mps 766 mmHg 36%
    17:00 +26°C° 0 mm 1 mps 766 mmHg 41%
    18:00 +25°C° 0 mm 1 mps 766 mmHg 45%
    19:00 +24°C° 0 mm 1 mps 766 mmHg 50%
    20:00 +22°C° 0 mm 1 mps 766 mmHg 54%
    21:00 +20°C° 0 mm 1 mps 766 mmHg 58%
    22:00 +18°C° 0 mm 1 mps 767 mmHg 61%
    23:00 +18°C° 0 mm 1 mps 767 mmHg 65%

    27 May, Sunday

    Time Temperature Precipitation Wind Pressure Humidity
    00:00 +16°C° 0 mm 1 mps 767 mmHg 69%
    01:00 +16°C° 0 mm 1 mps 767 mmHg 72%
    02:00 +15°C° 0 mm 1 mps 767 mmHg 74%
    03:00 +15°C° 0 mm 1 mps 767 mmHg 77%
    04:00 +14°C° 0 mm 0 mps 767 mmHg 79%
    05:00 +18°C° 0 mm 1 mps 768 mmHg 71%
    06:00 +20°C° 0 mm 1 mps 768 mmHg 64%
    07:00 +22°C° 0 mm 1 mps 768 mmHg 56%
    08:00 +24°C° 0 mm 1 mps 768 mmHg 50%
    09:00 +25°C° 0 mm 1 mps 768 mmHg 45%
    10:00 +27°C° 0 mm 1 mps 768 mmHg 39%
    11:00 +27°C° 0 mm 2 mps 768 mmHg 37%
    12:00 +28°C° 0 mm 2 mps 768 mmHg 36%
    13:00 +28°C° 0 mm 2 mps 768 mmHg 35%
    14:00 +28°C° 0 mm 2 mps 767 mmHg 35%
    15:00 +28°C° 0 mm 2 mps 767 mmHg 34%
    16:00 +28°C° 0 mm 2 mps 767 mmHg 34%
    17:00 +27°C° 0 mm 2 mps 767 mmHg 38%
    18:00 +26°C° 0 mm 2 mps 767 mmHg 43%
    19:00 +25°C° 0 mm 1 mps 767 mmHg 47%
    20:00 +23°C° 0 mm 1 mps 767 mmHg 50%
    21:00 +21°C° 0 mm 1 mps 767 mmHg 53%
    22:00 +19°C° 0 mm 1 mps 768 mmHg 55%
    23:00 +19°C° 0 mm 1 mps 768 mmHg 57%
    Show more